Regional Weather Roundup
Issued by NWS

Home | Current Version | Previous Version | Graphics & Text | Print | Product List | Glossary On
Versions: 1 2 3 4 5 6 7 8 9 10 11 12 13 14 15 16 17 18 19 20 21 22 23 24 25 26 27 28 29 30 31 32 33 34 35 36 37 38 39 40 41 42 43 44 45 46 47 48 49 50
548
ASUS44 KLIX 181305
RWRLA
LOUISIANA WEATHER ROUNDUP
NATIONAL WEATHER SERVICE NEW ORLEANS LA
800 AM CDT FRI APR 18 2014

NOTE: "FAIR" INDICATES FEW OR NO CLOUDS BELOW 12,000 FEET WITH NO
      SIGNIFICANT WEATHER AND/OR OBSTRUCTIONS TO VISIBILITY.
      SKY/WX - SKY CONDITION AND SIGNIFICANT WEATHER.
      TMP - AIR TEMPERATURE.    DP   - DEWPOINT TEMPERATURE.
      RH  - RELATIVE HUMIDITY.  PRES - PRESSURE.
      HX  - HEAT INDEX.         WCI  - WIND CHILL INDEX.

*  THESE STATIONS ARE NOT NWS OR FAA STATIONS AND ARE NOT UNDER
   NWS QUALITY CONTROL.

LAZ040-048-061>063-065-066-069-181400-
SOUTHEAST LOUISIANA

CITY           SKY/WX    TMP DP  RH WIND       PRES   REMARKS
N.O. AUDUBON   NOT AVBL
N.O. INTL ARPT CLOUDY    62  60  93 N10       30.11R
N.O. LAKEFRONT CLOUDY    62  60  93 N17       30.11R
N.O. DOWNTOWN* CLOUDY    61  57  88 N7        30.11R
SLIDELL        CLOUDY    62  59  90 N6        30.10R
BATON ROUGE    CLOUDY    63  56  78 VRB6      30.14R
BOOTHVILLE     LGT RAIN  62  61  96 N8G16     30.05R FOG
BELLE CHASSE   DRIZZLE   63  59  88 N7        30.09R FOG
BOGALUSA*        N/A     62  58  87 N5        30.14R
GALLIANO*      DRIZZLE   63  60  92 NW12      30.09R
NEW ROADS*     CLOUDY    59  56  90 NE5       30.16R
GONZALES*      CLOUDY    61  58  89 N3        30.12F
HAMMOND*       CLOUDY    63  57  82 N7        30.14R
HOUMA*         CLOUDY    63  59  88 N12       30.11R FOG
PORT FOURCHON* FOG       63  61  94 N13       30.09R VSB 3/4

$$

LAZ041-044-053-054-181400-
SOUTHWEST LOUISIANA

CITY           SKY/WX    TMP DP  RH WIND       PRES   REMARKS
LAKE CHARLES   CLOUDY    58  55  90 N6        30.15R
LAFAYETTE      MOSUNNY   62  58  86 CALM      30.14R
PATTERSON      CLOUDY    61  57  88 N7          N/A
SALT POINT       N/A     64  60  87 VRB5      30.11R
NEW IBERIA     CLOUDY    63  58  83 N7        30.14R FOG
CHENAULT AIRPK PTSUNNY   57  55  94 N6        30.17R

$$

LAZ027-028-181400-
CENTRAL LOUISIANA

CITY           SKY/WX    TMP DP  RH WIND       PRES   REMARKS
FORT POLK      CLOUDY    56  53  90 NE5       30.17R
ALEXANDRIA INT CLOUDY    57  55  93 N5        30.17R
ALEXANDRIA     CLOUDY    58  54  86 VRB3      30.19R

$$

LAZ001-002-181400-
NORTHWEST LOUISIANA

CITY           SKY/WX    TMP DP  RH WIND       PRES   REMARKS
SHREVEPORT     PTSUNNY   57  53  86 N5        30.20R
BARKSDALE AFB  PTSUNNY   55  53  91 CALM      30.20S
DTN SHREVEPORT PTSUNNY   56  51  84 N5        30.21R

$$

LAZ014-016-181400-
NORTHEAST LOUISIANA

CITY           SKY/WX    TMP DP  RH WIND       PRES   REMARKS
MONROE         CLOUDY    57  53  86 CALM      30.23R
TALLULAH       CLOUDY    60  55  83 N7        30.20R

$$




USA.gov is the U.S. government's official web portal to all federal, state and local government web resources and services.